#timestamp,LO_Frequency,Hit 
1500598815.0,286047111.0,N
1500598815.9,286047111.0,N
1500598835.8,286047113.2,N
1500598855.6,286047112.0,N
1500598875.4,286047111.9,N
1500598895.3,286047112.1,N
1500598915.1,286047113.6,N
1500598916.0,286047113.6,N
1500598935.8,286047114.6,N
1500598955.7,286047111.4,N
1500598975.5,286047112.7,N
1500598995.3,286047111.9,N
1500599015.2,286047112.0,N
1500599035.9,286047111.7,N
1500599055.7,286047112.0,N
1500599075.6,286047114.1,N
1500599095.4,286047114.5,N
1500599115.2,286047114.6,N
1500599135.1,286047113.6,N
1500599136.0,286047113.6,N
1500599155.8,286047115.5,N
1500599175.6,286047113.3,N
1500599195.5,286047114.0,N
1500599215.3,286047112.2,N
1500599235.1,286047113.5,N
1500599255.9,286047111.7,N
1500599275.7,286047113.6,N
1500599295.5,286047118.0,N
1500599315.3,286047115.3,N
1500599335.2,286047116.9,N
1500599355.0,286047117.4,N
1500599355.9,286047117.4,N
1500599375.7,286047115.7,N
1500599395.6,286047115.2,N
1500599415.4,286047118.0,N
1500599435.2,286047119.6,N
1500599455.1,286047116.6,N
1500599456.0,286047116.6,N
1500599475.8,286047116.7,N
1500599495.6,286047115.4,N
1500599515.5,286047116.8,N
1500599535.3,286047116.8,N
1500599555.1,286047117.3,N
1500599575.9,286047116.3,N
1500599595.7,286047114.0,N
1500599615.5,286047113.5,N
1500599635.4,286047114.3,N
1500599655.2,286047114.6,N
1500599675.0,286047111.7,N
1500599675.9,286047111.7,N
1500599695.8,286047115.1,N
1500599715.6,286047115.0,N
1500599735.4,286047116.9,N
1500599755.3,286047119.0,N
1500599775.1,286047118.6,N
1500599776.0,286047118.6,N
1500599795.8,286047117.1,N
1500599815.7,286047118.9,N
1500599835.5,286047118.3,N
1500599855.3,286047117.2,N
1500599875.2,286047117.6,N
1500599895.9,286047115.7,N
1500599915.7,286047115.2,N
1500599935.5,286047117.1,N
1500599955.4,286047117.5,N
1500599975.2,286047116.8,N
1500599995.0,286047121.1,N
1500599995.9,286047121.1,N
1500600015.8,286047118.4,N
1500600035.6,286047117.3,N
1500600055.4,286047120.8,N
1500600075.3,286047122.7,N
1500600095.1,286047120.8,N
1500600115.8,286047117.1,N
1500600135.7,286047117.1,N
1500600155.5,286047119.6,N
1500600175.3,286047118.2,N
1500600195.2,286047120.8,N
1500600215.9,286047122.5,N
1500600235.7,286047121.4,N
1500600255.6,286047124.1,N
1500600275.4,286047120.7,N
1500600295.2,286047120.4,N
1500600315.1,286047121.8,N
1500600316.0,286047121.8,N
1500600335.8,286047122.5,N
1500600355.6,286047122.0,N
1500600375.5,286047118.7,N
1500600395.3,286047119.0,N
1500600415.1,286047119.3,N
1500600435.9,286047120.2,N
1500600455.7,286047122.8,N
1500600475.5,286047122.5,N
1500600495.4,286047124.1,N
1500600515.2,286047121.3,N
1500600535.0,286047122.2,N
1500600535.9,286047122.2,N
1500600555.8,286047123.1,N
1500600575.6,286047126.0,N
1500600595.4,286047126.0,N
1500600615.3,286047124.7,N
1500600635.1,286047122.9,N
1500600636.0,286047122.9,N
1500600655.8,286047123.3,N
1500600675.7,286047125.0,N
1500600695.5,286047127.2,N
1500600715.3,286047127.6,N
1500600735.1,286047126.8,N
1500600755.9,286047122.9,N
1500600775.7,286047127.6,N
1500600795.5,286047123.4,N
1500600815.4,286047125.6,N
1500600835.2,286047125.0,N
1500600855.0,286047128.8,N
1500600855.9,286047128.8,N
1500600875.8,286047129.8,N
1500600895.6,286047128.3,N
1500600915.4,286047127.0,N
1500600935.3,286047127.2,N
1500600955.1,286047127.5,N
1500600975.8,286047127.0,N
1500600995.7,286047124.6,N
1500601015.5,286047126.1,N
1500601035.3,286047128.8,N
1500601055.2,286047127.6,N
1500601075.9,286047127.9,N
1500601095.7,286047129.0,N
1500601115.6,286047128.8,N
1500601135.4,286047129.2,N
1500601155.2,286047129.1,N
1500601175.1,286047128.8,N
1500601176.0,286047128.8,N
1500601195.8,286047130.4,N
1500601215.6,286047128.3,N
1500601235.5,286047128.4,N
1500601255.3,286047130.5,N
1500601275.1,286047128.4,N
1500601295.9,286047129.4,N
1500601315.7,286047131.9,N
1500601335.5,286047130.5,N
1500601355.4,286047130.0,N
1500601375.2,286047130.1,N
1500601395.0,286047129.4,N
1500601395.9,286047129.4,N
1500601415.8,286047130.6,N
1500601435.6,286047130.7,N
1500601455.4,286047129.8,N
1500601475.2,286047133.8,N
1500601495.1,286047133.8,N
1500601496.0,286047133.8,N
1500601515.8,286047133.5,N
1500601535.6,286047129.8,N
1500601555.5,286047128.2,N
1500601575.3,286047129.1,N
1500601595.1,286047132.2,N
1500601615.9,286047131.7,N
1500601635.7,286047131.3,N
1500601655.5,286047129.6,N
1500601675.4,286047130.1,N
1500601695.2,286047129.9,N
1500601715.0,286047131.2,N
1500601715.9,286047131.2,N
1500601735.8,286047131.2,N
1500601755.6,286047132.3,N
1500601775.4,286047133.4,N
1500601795.3,286047131.7,N
1500601815.1,286047133.6,N
1500601816.0,286047133.6,N
1500601835.8,286047130.9,N
1500601855.7,286047129.3,N
1500601875.5,286047129.5,N
1500601895.3,286047128.1,N
1500601915.2,286047131.6,N
1500601935.9,286047133.2,N
1500601955.7,286047133.3,N
1500601975.6,286047136.3,N
1500601995.4,286047134.7,N
1500602015.2,286047136.3,N
1500602035.1,286047134.6,N
1500602036.0,286047134.6,N
1500602055.8,286047136.6,N
1500602075.6,286047135.6,N
1500602095.5,286047135.2,N
1500602115.3,286047135.3,N
1500602135.1,286047135.6,N
1500602155.9,286047134.5,N
1500602175.7,286047137.2,N
1500602195.5,286047133.4,N
1500602215.3,286047132.6,N
1500602235.2,286047134.7,N
1500602255.0,286047134.8,N
1500602255.9,286047134.8,N
1500602275.8,286047134.2,N
1500602295.6,286047134.8,N
1500602315.4,286047135.5,N
1500602335.2,286047132.9,N
1500602355.1,286047133.6,N
1500602356.0,286047133.6,N
1500602375.8,286047131.1,N
1500602395.6,286047133.2,N
